DIESL EHAM-EBOS

Flight info

Callsign DIESL
Flight time 0h 52m
Altitude 2000
Route 521736N0045000E 521612N0045301E 521324N0045901E 515954N0043905E 515656N0043150E 515626N0042802E DCT EHRD DCT 515824N0042347E 515822N0041903E 515820N0041323E 515818N0040736E 511137N0030357E DCT 510934N0025616E
Aircraft DA42/L-SBDFGRY/S

Departure

Time 2026-05-06 19:17
Airport Amsterdam Airport Schiphol (EHAM)

Arrival

Time 2026-05-06 20:09
Airport Ostend-Bruges International Airport (EBOS)
Time Latitude Longitude Altitude Speed Heading
2026-05-06 18:45 52.31175 4.80415 -6 ft 0 kts 311°
2026-05-06 19:06 52.31163 4.80427 -6 ft 7 kts 117°
2026-05-06 19:07 52.31182 4.80503 -6 ft 7 kts 40°
2026-05-06 19:07 52.31213 4.80547 -6 ft 5 kts 40°
2026-05-06 19:07 52.31233 4.80558 -6 ft 0 kts 345°
2026-05-06 19:08 52.31236 4.80555 -6 ft 4 kts 331°
2026-05-06 19:08 52.31248 4.80523 -6 ft 0 kts 262°
2026-05-06 19:09 52.31245 4.80466 -6 ft 13 kts 264°
2026-05-06 19:09 52.31170 4.80314 -7 ft 17 kts 224°
2026-05-06 19:09 52.31086 4.80193 -7 ft 17 kts 221°
2026-05-06 19:10 52.30990 4.80055 -7 ft 18 kts 220°
2026-05-06 19:10 52.30893 4.79919 -7 ft 18 kts 220°
2026-05-06 19:10 52.30797 4.79782 -7 ft 18 kts 221°
2026-05-06 19:10 52.30701 4.79645 -7 ft 18 kts 221°
2026-05-06 19:11 52.30640 4.79558 -7 ft 9 kts 221°
2026-05-06 19:11 52.30589 4.79484 -7 ft 11 kts 221°
2026-05-06 19:11 52.30533 4.79403 -7 ft 10 kts 221°
2026-05-06 19:11 52.30473 4.79318 -7 ft 12 kts 221°
2026-05-06 19:12 52.30405 4.79222 -7 ft 14 kts 221°
2026-05-06 19:12 52.30332 4.79114 -7 ft 15 kts 224°
2026-05-06 19:12 52.30255 4.79006 -7 ft 14 kts 221°
2026-05-06 19:12 52.30182 4.78902 -7 ft 12 kts 221°
2026-05-06 19:13 52.30119 4.78813 -7 ft 12 kts 221°
2026-05-06 19:13 52.30062 4.78730 -7 ft 7 kts 225°
2026-05-06 19:13 52.30037 4.78671 -7 ft 7 kts 263°
2026-05-06 19:13 52.30053 4.78603 -7 ft 3 kts 311°
2026-05-06 19:14 52.30054 4.78601 -7 ft 0 kts 310°
2026-05-06 19:15 52.30067 4.78574 -7 ft 11 kts 311°
2026-05-06 19:15 52.30119 4.78482 -9 ft 9 kts 334°
2026-05-06 19:15 52.30136 4.78486 -9 ft 0 kts 42°
2026-05-06 19:16 52.30175 4.78539 -9 ft 32 kts 42°
2026-05-06 19:16 52.30477 4.78981 32 ft 74 kts 41°
2026-05-06 19:16 52.30840 4.79596 359 ft 73 kts 43°
2026-05-06 19:17 52.31001 4.80381 602 ft 89 kts 107°
2026-05-06 19:17 52.30560 4.81234 815 ft 107 kts 128°
2026-05-06 19:17 52.30010 4.82110 1016 ft 117 kts 126°
2026-05-06 19:17 52.29422 4.83211 1007 ft 137 kts 121°
2026-05-06 19:18 52.28810 4.84498 1007 ft 148 kts 121°
2026-05-06 19:18 52.28375 4.85424 1008 ft 153 kts 121°
2026-05-06 19:18 52.27717 4.86829 1010 ft 159 kts 121°
2026-05-06 19:18 52.27029 4.88303 1014 ft 163 kts 122°
2026-05-06 19:19 52.26338 4.89781 1015 ft 164 kts 122°
2026-05-06 19:19 52.25646 4.91262 1006 ft 165 kts 122°
2026-05-06 19:19 52.24950 4.92758 1002 ft 165 kts 122°
2026-05-06 19:19 52.24255 4.94251 1004 ft 165 kts 122°
2026-05-06 19:20 52.23372 4.95518 1006 ft 170 kts 147°
2026-05-06 19:20 52.22238 4.96097 1004 ft 173 kts 172°
2026-05-06 19:20 52.21012 4.95865 1011 ft 174 kts 198°
2026-05-06 19:20 52.19954 4.94828 1010 ft 172 kts 223°
2026-05-06 19:21 52.19072 4.93527 1010 ft 171 kts 224°
2026-05-06 19:21 52.18192 4.92219 1005 ft 170 kts 223°
2026-05-06 19:21 52.17322 4.90926 1013 ft 169 kts 223°
2026-05-06 19:21 52.16451 4.89634 1008 ft 170 kts 223°
2026-05-06 19:22 52.15563 4.88318 1000 ft 169 kts 224°
2026-05-06 19:22 52.14695 4.87033 1006 ft 169 kts 223°
2026-05-06 19:22 52.13825 4.85744 1000 ft 169 kts 223°
2026-05-06 19:22 52.12943 4.84442 1004 ft 169 kts 224°
2026-05-06 19:23 52.12069 4.83149 1004 ft 169 kts 223°
2026-05-06 19:23 52.11198 4.81862 1007 ft 169 kts 224°
2026-05-06 19:23 52.10335 4.80587 1004 ft 165 kts 224°
2026-05-06 19:23 52.09481 4.79325 1002 ft 163 kts 223°
2026-05-06 19:24 52.08649 4.78098 1001 ft 160 kts 224°
2026-05-06 19:24 52.07811 4.76865 1005 ft 158 kts 224°
2026-05-06 19:24 52.06977 4.75637 1000 ft 156 kts 224°
2026-05-06 19:24 52.06192 4.74478 1002 ft 155 kts 223°
2026-05-06 19:25 52.05395 4.73307 1007 ft 154 kts 223°
2026-05-06 19:25 52.04593 4.72130 1005 ft 154 kts 223°
2026-05-06 19:25 52.03788 4.70943 1006 ft 154 kts 223°
2026-05-06 19:25 52.02998 4.69785 1008 ft 154 kts 224°
2026-05-06 19:26 52.02193 4.68602 1010 ft 154 kts 223°
2026-05-06 19:26 52.01394 4.67435 1005 ft 155 kts 223°
2026-05-06 19:26 52.00602 4.66272 999 ft 151 kts 223°
2026-05-06 19:26 51.99841 4.65109 999 ft 149 kts 231°
2026-05-06 19:27 51.99446 4.64205 1010 ft 148 kts 238°
2026-05-06 19:27 51.98590 4.62428 999 ft 148 kts 227°
2026-05-06 19:27 51.97857 4.61271 1007 ft 146 kts 224°
2026-05-06 19:27 51.97060 4.60231 1004 ft 144 kts 214°
2026-05-06 19:28 51.96238 4.59341 1004 ft 142 kts 213°
2026-05-06 19:28 51.95699 4.58745 995 ft 139 kts 214°
2026-05-06 19:28 51.94935 4.57802 1004 ft 135 kts 225°
2026-05-06 19:28 51.94510 4.56465 997 ft 134 kts 266°
2026-05-06 19:29 51.94451 4.54985 1011 ft 133 kts 275°
2026-05-06 19:29 51.94508 4.53462 1011 ft 135 kts 278°
2026-05-06 19:29 51.94575 4.51924 1014 ft 135 kts 277°
2026-05-06 19:29 51.94625 4.50390 1012 ft 136 kts 277°
2026-05-06 19:30 51.94697 4.48840 1008 ft 136 kts 280°
2026-05-06 19:30 51.94898 4.47331 1007 ft 135 kts 290°
2026-05-06 19:30 51.95177 4.45905 1011 ft 132 kts 296°
2026-05-06 19:30 51.95506 4.44524 1010 ft 132 kts 297°
2026-05-06 19:31 51.95854 4.43112 1006 ft 134 kts 297°
2026-05-06 19:31 51.96190 4.41634 1006 ft 135 kts 292°
2026-05-06 19:31 51.96239 4.38894 1002 ft 118 kts 249°
2026-05-06 19:32 51.95868 4.37760 1005 ft 112 kts 243°
2026-05-06 19:32 51.95396 4.36755 959 ft 108 kts 220°
2026-05-06 19:32 51.94721 4.36377 875 ft 103 kts 162°
2026-05-06 19:32 51.94133 4.36884 821 ft 94 kts 136°
2026-05-06 19:33 51.93724 4.37669 686 ft 92 kts 105°
2026-05-06 19:33 51.93732 4.38820 490 ft 93 kts 70°
2026-05-06 19:33 51.93939 4.39656 405 ft 85 kts 60°
2026-05-06 19:33 51.94245 4.40436 317 ft 82 kts 54°
2026-05-06 19:34 51.94548 4.41189 319 ft 77 kts 53°
2026-05-06 19:34 51.94847 4.41925 217 ft 78 kts 55°
2026-05-06 19:34 51.95144 4.42661 94 ft 78 kts 56°
2026-05-06 19:34 51.95434 4.43386 -1 ft 71 kts 52°
2026-05-06 19:35 51.95652 4.43906 -5 ft 47 kts 56°
2026-05-06 19:35 51.95874 4.44474 12 ft 75 kts 58°
2026-05-06 19:35 51.96140 4.45232 284 ft 79 kts 56°
2026-05-06 19:35 51.96572 4.45674 549 ft 89 kts 351°
2026-05-06 19:36 51.97034 4.44976 858 ft 98 kts 304°
2026-05-06 19:36 51.97266 4.43835 1012 ft 120 kts 283°
2026-05-06 19:36 51.97327 4.42350 1016 ft 143 kts 277°
2026-05-06 19:36 51.97340 4.40638 1012 ft 155 kts 274°
2026-05-06 19:37 51.97332 4.38799 1009 ft 163 kts 273°
2026-05-06 19:37 51.97318 4.36939 1002 ft 163 kts 274°
2026-05-06 19:37 51.97305 4.35126 1005 ft 159 kts 274°
2026-05-06 19:37 51.97297 4.33919 1004 ft 158 kts 274°
2026-05-06 19:38 51.97277 4.31552 1006 ft 156 kts 274°
2026-05-06 19:38 51.97265 4.29810 1004 ft 152 kts 274°
2026-05-06 19:38 51.97254 4.28098 1010 ft 152 kts 274°
2026-05-06 19:38 51.97247 4.26392 1004 ft 150 kts 274°
2026-05-06 19:39 51.97238 4.24709 1003 ft 149 kts 273°
2026-05-06 19:39 51.97227 4.23026 1007 ft 148 kts 273°
2026-05-06 19:39 51.97216 4.21352 1004 ft 149 kts 274°
2026-05-06 19:39 51.97210 4.20214 1005 ft 149 kts 274°
2026-05-06 19:40 51.97199 4.18495 1006 ft 148 kts 273°
2026-05-06 19:40 51.97189 4.16838 1004 ft 147 kts 275°
2026-05-06 19:40 51.97181 4.15166 1005 ft 148 kts 274°
2026-05-06 19:40 51.97128 4.13494 1000 ft 149 kts 265°
2026-05-06 19:41 51.96944 4.11822 1001 ft 148 kts 262°
2026-05-06 19:41 51.96766 4.10169 1006 ft 149 kts 263°
2026-05-06 19:41 51.96424 4.08571 1014 ft 151 kts 245°
2026-05-06 19:41 51.95887 4.07056 1017 ft 151 kts 242°
2026-05-06 19:42 51.95367 4.05573 1014 ft 152 kts 242°
2026-05-06 19:42 51.94804 4.04073 1017 ft 155 kts 238°
2026-05-06 19:42 51.94208 4.02616 1018 ft 154 kts 238°
2026-05-06 19:42 51.93575 4.01134 1016 ft 155 kts 231°
2026-05-06 19:43 51.92816 3.99908 1015 ft 157 kts 223°
2026-05-06 19:43 51.92012 3.98724 1017 ft 156 kts 222°
2026-05-06 19:43 51.91209 3.97555 1024 ft 155 kts 222°
2026-05-06 19:43 51.90407 3.96380 1013 ft 154 kts 222°
2026-05-06 19:44 51.89597 3.95196 1021 ft 156 kts 221°
2026-05-06 19:44 51.88811 3.93999 1012 ft 155 kts 223°
2026-05-06 19:44 51.88002 3.92843 1015 ft 154 kts 218°
2026-05-06 19:44 51.87154 3.91772 1022 ft 155 kts 217°
2026-05-06 19:45 51.86292 3.90679 1025 ft 155 kts 217°
2026-05-06 19:45 51.85449 3.89614 1020 ft 157 kts 218°
2026-05-06 19:45 51.84573 3.88538 1017 ft 158 kts 217°
2026-05-06 19:45 51.83694 3.87436 1020 ft 157 kts 218°
2026-05-06 19:46 51.82829 3.86357 1019 ft 156 kts 217°
2026-05-06 19:46 51.81971 3.85291 1020 ft 156 kts 217°
2026-05-06 19:46 51.81096 3.84217 1022 ft 158 kts 217°
2026-05-06 19:46 51.80200 3.83096 1014 ft 157 kts 217°
2026-05-06 19:47 51.79379 3.82030 1016 ft 156 kts 218°
2026-05-06 19:47 51.78517 3.80935 1018 ft 156 kts 217°
2026-05-06 19:47 51.77654 3.79868 1022 ft 156 kts 217°
2026-05-06 19:47 51.76795 3.78788 1015 ft 156 kts 217°
2026-05-06 19:48 51.75941 3.77695 1017 ft 157 kts 217°
2026-05-06 19:48 51.75077 3.76609 1015 ft 158 kts 217°
2026-05-06 19:48 51.74195 3.75510 1020 ft 158 kts 217°
2026-05-06 19:48 51.73336 3.74426 1020 ft 154 kts 217°
2026-05-06 19:49 51.72479 3.73364 1017 ft 154 kts 217°
2026-05-06 19:49 51.71630 3.72297 1018 ft 154 kts 216°
2026-05-06 19:49 51.70792 3.71211 1017 ft 151 kts 217°
2026-05-06 19:49 51.69963 3.70133 1027 ft 152 kts 217°
2026-05-06 19:50 51.69124 3.69076 1020 ft 153 kts 216°
2026-05-06 19:50 51.68561 3.68347 1026 ft 155 kts 217°
2026-05-06 19:50 51.67703 3.67221 1023 ft 157 kts 218°
2026-05-06 19:50 51.66840 3.66106 1020 ft 157 kts 217°
2026-05-06 19:51 51.65973 3.64993 1017 ft 157 kts 217°
2026-05-06 19:51 51.65116 3.63895 1015 ft 156 kts 217°
2026-05-06 19:51 51.64249 3.62799 1020 ft 157 kts 217°
2026-05-06 19:51 51.63362 3.61692 1020 ft 157 kts 217°
2026-05-06 19:52 51.62465 3.60557 1021 ft 156 kts 217°
2026-05-06 19:52 51.61642 3.59506 1017 ft 157 kts 217°
2026-05-06 19:52 51.60795 3.58402 1020 ft 157 kts 217°
2026-05-06 19:52 51.59941 3.57293 1020 ft 158 kts 217°
2026-05-06 19:53 51.59064 3.56176 1019 ft 159 kts 216°
2026-05-06 19:53 51.58189 3.55053 1017 ft 157 kts 217°
2026-05-06 19:53 51.57314 3.53940 1019 ft 155 kts 217°
2026-05-06 19:53 51.56466 3.52875 1067 ft 151 kts 217°
2026-05-06 19:54 51.55670 3.51860 1191 ft 144 kts 217°
2026-05-06 19:54 51.54885 3.50854 1215 ft 145 kts 217°
2026-05-06 19:54 51.54083 3.49832 1222 ft 148 kts 217°
2026-05-06 19:54 51.53266 3.48799 1219 ft 149 kts 217°
2026-05-06 19:55 51.52437 3.47750 1201 ft 152 kts 217°
2026-05-06 19:55 51.51603 3.46697 1204 ft 153 kts 217°
2026-05-06 19:55 51.50762 3.45623 1200 ft 152 kts 217°
2026-05-06 19:55 51.49935 3.44571 1201 ft 151 kts 217°
2026-05-06 19:56 51.49099 3.43511 1200 ft 152 kts 217°
2026-05-06 19:56 51.48270 3.42455 1197 ft 152 kts 217°
2026-05-06 19:56 51.47445 3.41401 1200 ft 152 kts 218°
2026-05-06 19:56 51.46585 3.40333 1195 ft 152 kts 217°
2026-05-06 19:57 51.45756 3.39304 1202 ft 151 kts 217°
2026-05-06 19:57 51.44926 3.38258 1197 ft 152 kts 217°
2026-05-06 19:57 51.44092 3.37225 1200 ft 152 kts 217°
2026-05-06 19:57 51.43254 3.36181 1201 ft 153 kts 217°
2026-05-06 19:58 51.42410 3.35119 1201 ft 155 kts 217°
2026-05-06 19:58 51.41701 3.34209 1200 ft 156 kts 217°
2026-05-06 19:58 51.40850 3.33137 1205 ft 156 kts 217°
2026-05-06 19:58 51.39973 3.32050 1202 ft 156 kts 217°
2026-05-06 19:59 51.39121 3.30982 1199 ft 155 kts 217°
2026-05-06 19:59 51.38547 3.30266 1201 ft 154 kts 217°
2026-05-06 19:59 51.37697 3.29227 1206 ft 153 kts 217°
2026-05-06 19:59 51.36839 3.28165 1200 ft 154 kts 218°
2026-05-06 20:00 51.35986 3.27139 1203 ft 153 kts 217°
2026-05-06 20:00 51.35124 3.26100 1202 ft 153 kts 217°
2026-05-06 20:00 51.34267 3.25047 1208 ft 153 kts 218°
2026-05-06 20:00 51.33415 3.24030 1209 ft 153 kts 217°
2026-05-06 20:01 51.32557 3.22987 1208 ft 152 kts 217°
2026-05-06 20:01 51.31714 3.21968 1208 ft 150 kts 217°
2026-05-06 20:01 51.30875 3.20963 1207 ft 150 kts 217°
2026-05-06 20:01 51.30037 3.19958 1199 ft 151 kts 219°
2026-05-06 20:02 51.29407 3.18619 1208 ft 147 kts 243°
2026-05-06 20:02 51.28864 3.17216 1208 ft 149 kts 240°
2026-05-06 20:02 51.28290 3.15848 1210 ft 146 kts 239°
2026-05-06 20:02 51.27726 3.14492 1212 ft 147 kts 239°
2026-05-06 20:03 51.27155 3.13119 1213 ft 148 kts 238°
2026-05-06 20:03 51.26579 3.11757 1209 ft 150 kts 238°
2026-05-06 20:03 51.25985 3.10333 1088 ft 158 kts 239°
2026-05-06 20:03 51.25353 3.08782 1013 ft 158 kts 240°
2026-05-06 20:04 51.24763 3.07394 1022 ft 155 kts 239°
2026-05-06 20:04 51.24163 3.05978 1010 ft 153 kts 239°
2026-05-06 20:04 51.23571 3.04564 1013 ft 152 kts 239°
2026-05-06 20:04 51.22976 3.03173 1010 ft 152 kts 239°
2026-05-06 20:05 51.22385 3.01780 996 ft 151 kts 239°
2026-05-06 20:05 51.21833 3.00351 1002 ft 149 kts 254°
2026-05-06 20:05 51.21607 2.98765 1015 ft 146 kts 265°
2026-05-06 20:05 51.21417 2.97191 987 ft 138 kts 264°
2026-05-06 20:06 51.21214 2.95760 872 ft 125 kts 263°
2026-05-06 20:06 51.21024 2.94455 706 ft 118 kts 263°
2026-05-06 20:06 51.20843 2.93235 563 ft 104 kts 263°
2026-05-06 20:06 51.20686 2.92175 411 ft 93 kts 264°
2026-05-06 20:07 51.20537 2.91185 310 ft 93 kts 265°
2026-05-06 20:07 51.20377 2.90112 180 ft 93 kts 263°
2026-05-06 20:07 51.20235 2.89167 61 ft 93 kts 262°
2026-05-06 20:07 51.20140 2.88509 22 ft 87 kts 259°
2026-05-06 20:08 51.20095 2.88205 11 ft 79 kts 255°
2026-05-06 20:08 51.20054 2.87947 9 ft 67 kts 255°
2026-05-06 20:09 51.20006 2.86490 10 ft 13 kts 252°
2026-05-06 20:09 51.19985 2.86348 10 ft 15 kts 257°
2026-05-06 20:09 51.19959 2.86166 10 ft 19 kts 256°
2026-05-06 20:10 51.19928 2.85968 10 ft 19 kts 257°
2026-05-06 20:10 51.19898 2.85770 11 ft 18 kts 258°
2026-05-06 20:10 51.19881 2.85603 11 ft 9 kts 322°
2026-05-06 20:10 51.19926 2.85656 11 ft 9 kts 34°
2026-05-06 20:11 51.19958 2.85641 10 ft 8 kts 291°
2026-05-06 20:11 51.19937 2.85581 11 ft 0 kts 235°